Location: Newark
(45.2500°N, 7.5833°E)
Time: 13:57:13
(UTC+00:00)

S-56A Canister/Altair - All Passes

Search period start: 29 January 2020 00:00
Search period end: 08 February 2020 00:00
Orbit: 634 x 2498 km, 38.9° (Epoch: 28 January)

Date Brightness Start Highest point End Pass type
(mag) Time Alt. Az. Time Alt. Az. Time Alt. Az.
29 Jan - 16:28:50 10° S 16:34:51 18° SSE 16:39:38 10° ESE daylight
29 Jan - 18:31:19 10° SW 18:38:40 37° SSE 18:43:53 10° E visible
29 Jan - 20:36:05 10° WSW 20:42:10 44° S 20:46:44 10° ESE visible
29 Jan - 22:41:04 10° WSW 22:45:07 24° SSW 22:48:44 10° SSE night (unlit)
30 Jan - 15:55:57 10° S 16:02:02 18° SSE 16:06:55 10° ESE daylight
30 Jan - 17:58:04 10° SW 18:05:58 36° SSE 18:11:29 10° E visible
30 Jan - 20:02:56 10° WSW 20:09:36 46° S 20:14:25 10° ESE visible
30 Jan - 22:08:04 10° W 22:12:39 28° SSW 22:16:32 10° SE night (unlit)
31 Jan - 15:23:07 10° S 15:29:09 17° SSE 15:34:06 10° ESE daylight
31 Jan - 17:24:47 10° SW 17:33:12 36° SSE 17:39:05 10° E visible
31 Jan - 19:29:41 10° WSW 19:36:59 48° S 19:42:05 10° ESE visible
31 Jan - 21:35:01 10° W 21:40:10 32° SSW 21:44:19 10° SE visible
01 Feb - 14:50:23 10° S 14:56:15 16° SE 15:01:09 10° ESE daylight
01 Feb - 16:51:28 10° SW 17:00:23 35° SSE 17:06:38 10° E visible
01 Feb - 18:56:22 10° WSW 19:04:19 49° S 19:09:45 10° ESE visible
01 Feb - 21:01:52 10° W 21:07:40 36° SSW 21:12:05 10° SE visible
01 Feb - 23:08:56 10° SW 23:10:09 11° SW 23:11:20 10° SSW night (unlit)
02 Feb - 14:17:48 10° S 14:23:19 14° SE 14:28:02 10° ESE daylight
02 Feb - 16:18:08 10° SW 16:27:31 34° SSE 16:34:10 10° E daylight
02 Feb - 18:22:57 10° WSW 18:31:36 50° S 18:37:25 10° ESE visible
02 Feb - 20:28:39 10° W 20:35:08 40° SSW 20:39:52 10° SE visible
02 Feb - 22:35:02 10° WSW 22:37:42 14° SW 22:40:07 10° S night (unlit)
03 Feb - 13:45:26 10° SSE 13:50:20 13° SE 13:54:41 10° ESE daylight
03 Feb - 15:44:49 10° SSW 15:54:36 33° SSE 16:01:37 10° E daylight
03 Feb - 17:49:30 10° WSW 17:58:50 50° S 18:05:03 10° E visible
03 Feb - 19:55:20 10° W 20:02:32 45° SSW 20:07:37 10° ESE visible
03 Feb - 22:01:33 10° WSW 22:05:15 17° SW 22:08:26 10° S visible
04 Feb - 13:13:27 10° SSE 13:17:21 12° SE 13:20:54 10° ESE daylight
04 Feb - 15:11:30 10° SSW 15:21:38 32° SSE 15:29:01 10° E daylight
04 Feb - 17:15:59 10° WSW 17:26:00 50° S 17:32:40 10° E visible
04 Feb - 19:21:57 10° W 19:29:55 49° SSW 19:35:21 10° ESE visible
04 Feb - 21:28:08 10° W 21:32:48 21° SSW 21:36:34 10° SSE visible
05 Feb - 12:42:25 10° SE 12:44:19 10° SE 12:46:10 10° SE daylight
05 Feb - 14:38:14 10° SSW 14:48:36 30° SSE 14:56:21 10° E daylight
05 Feb - 16:42:26 10° WSW 16:53:06 50° SSE 17:00:14 10° E daylight
05 Feb - 18:48:30 10° W 18:57:13 52° S 19:03:03 10° ESE visible
05 Feb - 20:54:45 10° W 21:00:19 26° SSW 21:04:36 10° SSE visible
06 Feb - 14:05:02 10° SSW 14:15:32 29° SSE 14:23:35 10° E daylight
06 Feb - 16:08:51 10° SW 16:20:09 49° SSE 16:27:45 10° E daylight
06 Feb - 18:14:57 10° W 18:24:27 55° S 18:30:44 10° ESE visible
06 Feb - 20:21:19 10° W 20:27:47 31° SSW 20:32:33 10° SSE visible
07 Feb - 13:31:54 10° SSW 13:42:25 27° SSE 13:50:44 10° E daylight
07 Feb - 15:35:17 10° SW 15:47:07 48° SSE 15:55:15 10° E daylight
07 Feb - 17:41:21 10° WSW 17:51:37 57° S 17:58:22 10° ESE visible
07 Feb - 19:47:50 10° W 19:55:13 36° SSW 20:00:27 10° SE visible
